CW8721 Weather Reports


Display with metric or nautical units.
time (UTC)temp
F
wind
direction
speed
MPH
gust
MPH
rain 1hr
in
rain 24hr
in
rain mn
in
humidity
%
barometer
mb
20260510191615 77 196 0.0 6.0 0.00 0.00 0.00 19 1014.9
20260510191051 78 74 3.0 12.0 0.00 0.00 0.00 17 1014.9
20260510190549 78 50 3.0 12.0 0.00 0.00 0.00 17 1014.9
20260510190100 77 30 1.0 9.0 0.00 0.00 0.00 18 1014.9
20260510185548 77 19 2.0 12.0 0.00 0.00 0.00 22 1015.1
20260510185047 78 36 4.0 12.0 0.00 0.00 0.00 18 1015.1
20260510184549 77 55 2.0 8.0 0.00 0.00 0.00 18 1015.2
20260510184047 76 96 1.0 8.0 0.00 0.00 0.00 17 1015.2
20260510183544 75 92 0.0 3.0 0.00 0.00 0.00 18 1015.3
20260510183052 75 335 1.0 5.0 0.00 0.00 0.00 20 1015.4
20260510182543 75 165 2.0 5.0 0.00 0.00 0.00 16 1015.4
20260510182047 75 23 1.0 6.0 0.00 0.00 0.00 20 1015.5
20260510181542 75 63 0.0 9.0 0.00 0.00 0.00 17 1015.5
20260510181042 76 98 2.0 9.0 0.00 0.00 0.00 19 1015.6
20260510180541 75 128 2.0 8.0 0.00 0.00 0.00 19 1015.5
20260510180050 75 22 1.0 7.0 0.00 0.00 0.00 19 1015.6
20260510175542 73 169 0.0 2.0 0.00 0.00 0.00 22 1015.6
20260510175140 73 169 0.0 3.0 0.00 0.00 0.00 18 1015.6
20260510174539 74 151 1.0 4.0 0.00 0.00 0.00 18 1015.7
20260510174037 75 67 1.0 5.0 0.00 0.00 0.00 16 1015.7
20260510173536 76 196 2.0 5.0 0.00 0.00 0.00 18 1015.7
20260510173035 74 72 1.0 4.0 0.00 0.00 0.00 20 1015.8
20260510172533 73 97 0.0 3.0 0.00 0.00 0.00 19 1015.7
20260510172032 73 184 0.0 2.0 0.00 0.00 0.00 21 1015.7
20260510171535 73 192 0.0 5.0 0.00 0.00 0.00 18 1015.8
20260510171034 73 148 1.0 5.0 0.00 0.00 0.00 21 1015.8
20260510170533 73 167 0.0 6.0 0.00 0.00 0.00 20 1015.9
20260510170033 72 150 0.0 2.0 0.00 0.00 0.00 22 1015.9
20260510165527 72 151 0.0 6.0 0.00 0.00 0.00 20 1015.9
20260510165026 72 103 3.0 6.0 0.00 0.00 0.00 23 1015.9
20260510164523 71 148 0.0 5.0 0.00 0.00 0.00 20 1015.9
20260510164023 71 134 0.0 5.0 0.00 0.00 0.00 22 1015.8
20260510163522 70 143 2.0 5.0 0.00 0.00 0.00 21 1015.8
20260510163022 70 173 1.0 10.0 0.00 0.00 0.00 20 1015.9
20260510162521 70 144 0.0 4.0 0.00 0.00 0.00 21 1015.7
20260510162019 70 145 0.0 11.0 0.00 0.00 0.00 22 1015.9
20260510161520 69 116 3.0 11.0 0.00 0.00 0.00 24 1015.8
20260510161017 69 138 0.0 6.0 0.00 0.00 0.00 23 1015.8
20260510160519 69 193 1.0 8.0 0.00 0.00 0.00 24 1015.8
20260510160015 69 113 0.0 8.0 0.00 0.00 0.00 26 1015.8
20260510155514 68 138 3.0 7.0 0.00 0.00 0.00 26 1015.8
20260510155013 68 128 0.0 7.0 0.00 0.00 0.00 26 1015.8
20260510154512 68 165 1.0 10.0 0.00 0.00 0.00 26 1015.8
20260510154016 67 152 2.0 10.0 0.00 0.00 0.00 27 1015.9
20260510153513 67 173 1.0 9.0 0.00 0.00 0.00 28 1015.9
20260510153013 66 161 0.0 6.0 0.00 0.00 0.00 28 1015.8
20260510152506 65 184 1.0 9.0 0.00 0.00 0.00 27 1015.8
20260510152005 66 167 3.0 9.0 0.00 0.00 0.00 29 1015.8
20260510151503 64 126 0.0 4.0 0.00 0.00 0.00 32 1015.9
20260510151003 64 132 1.0 6.0 0.00 0.00 0.00 32 1015.9
20260510150602 63 180 2.0 6.0 0.00 0.00 0.00 31 1016.0
20260510145558 63 148 2.0 7.0 0.00 0.00 0.00 35 1015.9
20260510145057 62 136 1.0 7.0 0.00 0.00 0.00 37 1015.9
20260510144615 62 125 1.0 7.0 0.00 0.00 0.00 38 1015.9
20260510144053 61 143 1.0 5.0 0.00 0.00 0.00 37 1015.9
20260510143551 61 134 1.0 7.0 0.00 0.00 0.00 37 1015.9
20260510143050 60 170 1.0 7.0 0.00 0.00 0.00 35 1015.8
20260510142553 60 146 1.0 5.0 0.00 0.00 0.00 34 1016.0
20260510142050 59 146 1.0 7.0 0.00 0.00 0.00 35 1015.8
20260510141550 59 95 1.0 4.0 0.00 0.00 0.00 35 1015.8
20260510141048 58 131 1.0 4.0 0.00 0.00 0.00 36 1015.8
20260510140552 56 159 1.0 6.0 0.00 0.00 0.00 39 1015.7
20260510140047 56 86 1.0 6.0 0.00 0.00 0.00 39 1015.8
20260510135546 55 153 2.0 6.0 0.00 0.00 0.00 39 1015.7
20260510135046 55 152 1.0 6.0 0.00 0.00 0.00 40 1015.7
20260510134550 54 108 1.0 6.0 0.00 0.00 0.00 39 1015.7
20260510134044 53 169 0.0 3.0 0.00 0.00 0.00 41 1015.7
20260510133543 53 140 0.0 5.0 0.00 0.00 0.00 42 1015.6
20260510133043 52 148 1.0 5.0 0.00 0.00 0.00 43 1015.6
20260510132541 51 106 0.0 4.0 0.00 0.00 0.00 44 1015.5
20260510132043 51 108 1.0 4.0 0.00 0.00 0.00 44 1015.5
20260510131543 51 102 1.0 4.0 0.00 0.00 0.00 43 1015.5
20260510131040 51 128 0.0 3.0 0.00 0.00 0.00 42 1015.4
20260510130539 51 117 0.0 2.0 0.00 0.00 0.00 42 1015.3
20260510130038 51 360 0.0 2.0 0.00 0.00 0.00 42 1015.2
20260510125538 51 360 0.0 2.0 0.00 0.00 0.00 42 1015.3
20260510125037 50 360 0.0 2.0 0.00 0.00 0.00 43 1015.2
20260510124537 50 360 0.0 2.0 0.00 0.00 0.00 43 1015.1
20260510124036 49 360 0.0 2.0 0.00 0.00 0.00 44 1015.1
20260510123536 49 138 0.0 1.0 0.00 0.00 0.00 45 1015.0
20260510123036 48 136 0.0 1.0 0.00 0.00 0.00 48 1015.0
20260510122537 47 117 0.0 1.0 0.00 0.00 0.00 49 1015.0
20260510122034 47 119 0.0 2.0 0.00 0.00 0.00 51 1015.0
20260510121533 47 360 0.0 2.0 0.00 0.00 0.00 50 1015.0
20260510121032 48 360 0.0 4.0 0.00 0.00 0.00 49 1014.9
20260510120533 48 360 1.0 4.0 0.00 0.00 0.00 48 1015.0
20260510120031 48 132 0.0 0.0 0.00 0.00 0.00 48 1014.9
20260510115528 49 132 0.0 0.0 0.00 0.00 0.00 46 1014.9
20260510115031 49 132 0.0 0.0 0.00 0.00 0.00 46 1014.8
20260510114528 49 360 0.0 2.0 0.00 0.00 0.00 46 1014.9
20260510114030 49 131 0.0 3.0 0.00 0.00 0.00 46 1014.7
20260510113527 50 124 1.0 4.0 0.00 0.00 0.00 45 1014.7
20260510113024 51 138 1.0 4.0 0.00 0.00 0.00 43 1014.7
20260510112523 53 172 0.0 0.0 0.00 0.00 0.00 39 1014.6
20260510112022 54 172 0.0 0.0 0.00 0.00 0.00 35 1014.5
20260510111522 54 172 0.0 0.0 0.00 0.00 0.00 35 1014.6
20260510111021 54 172 0.0 0.0 0.00 0.00 0.00 35 1014.6
20260510110525 54 172 0.0 0.0 0.00 0.00 0.00 35 1014.6
20260510110032 54 172 0.0 0.0 0.00 0.00 0.00 36 1014.6
20260510105521 54 172 0.0 0.0 0.00 0.00 0.00 36 1014.6
20260510105021 54 172 0.0 0.0 0.00 0.00 0.00 36 1014.6
20260510104519 55 172 0.0 0.0 0.00 0.00 0.00 36 1014.5
20260510104018 55 172 0.0 0.0 0.00 0.00 0.00 36 1014.4
20260510103518 55 172 0.0 0.0 0.00 0.00 0.00 38 1014.6
20260510103020 56 172 0.0 0.0 0.00 0.00 0.00 33 1014.6
20260510102518 56 172 0.0 0.0 0.00 0.00 0.00 33 1014.6
20260510102017 56 172 0.0 0.0 0.00 0.00 0.00 33 1014.5
20260510101517 57 172 0.0 0.0 0.00 0.00 0.00 33 1014.6
20260510101016 57 172 0.0 1.0 0.00 0.00 0.00 31 1014.6
20260510100519 57 172 0.0 1.0 0.00 0.00 0.00 31 1014.6
20260510100016 57 172 0.0 0.0 0.00 0.00 0.00 31 1014.5
20260510095515 57 172 0.0 0.0 0.00 0.00 0.00 31 1014.4
20260510095021 57 172 0.0 0.0 0.00 0.00 0.00 33 1014.4
20260510094535 57 172 0.0 0.0 0.00 0.00 0.00 31 1014.4
20260510094013 58 172 0.0 0.0 0.00 0.00 0.00 31 1014.3
20260510093513 57 172 0.0 1.0 0.00 0.00 0.00 32 1014.3
20260510093014 56 172 0.0 1.0 0.00 0.00 0.00 32 1014.2
20260510092514 57 172 0.0 1.0 0.00 0.00 0.00 32 1014.2
20260510092011 57 172 0.0 1.0 0.00 0.00 0.00 32 1014.2
20260510091520 57 172 0.0 0.0 0.00 0.00 0.00 30 1014.1
20260510091011 57 172 0.0 0.0 0.00 0.00 0.00 30 1014.1
20260510090511 58 172 0.0 0.0 0.00 0.00 0.00 29 1014.1
20260510090015 58 172 0.0 0.0 0.00 0.00 0.00 29 1014.2
20260510085510 58 172 0.0 0.0 0.00 0.00 0.00 30 1014.1
20260510085010 58 172 0.0 0.0 0.00 0.00 0.00 30 1014.1
20260510084509 57 172 0.0 0.0 0.00 0.00 0.00 30 1014.1
20260510084009 57 172 0.0 0.0 0.00 0.00 0.00 30 1014.1
20260510083509 57 172 0.0 2.0 0.00 0.00 0.00 30 1014.0
20260510083008 56 172 0.0 2.0 0.00 0.00 0.00 32 1014.0
20260510082509 56 194 0.0 1.0 0.00 0.00 0.00 33 1013.9
20260510082008 55 194 0.0 1.0 0.00 0.00 0.00 33 1013.9
20260510081514 55 194 0.0 1.0 0.00 0.00 0.00 35 1013.9
20260510081007 56 217 0.0 1.0 0.00 0.00 0.00 36 1013.9
20260510080505 57 217 0.0 1.0 0.00 0.00 0.00 33 1014.0
20260510080005 57 222 0.0 0.0 0.00 0.00 0.00 30 1013.9
20260510075604 57 222 0.0 0.0 0.00 0.00 0.00 30 1013.9
20260510075003 58 222 0.0 0.0 0.00 0.00 0.00 28 1013.9
20260510074503 58 222 0.0 0.0 0.00 0.00 0.00 26 1013.8
20260510074002 58 223 0.0 0.0 0.00 0.00 0.00 26 1013.9
20260510073501 57 223 0.0 0.0 0.00 0.00 0.00 29 1013.6
20260510073002 55 223 0.0 0.0 0.00 0.00 0.00 30 1013.7
20260510072601 55 223 0.0 1.0 0.00 0.00 0.00 30 1013.7
20260510072100 55 223 0.0 3.0 0.00 0.00 0.00 30 1013.7
20260510071559 56 223 0.0 3.0 0.00 0.00 0.00 28 1013.6
20260510071057 57 222 1.0 3.0 0.00 0.00 0.00 27 1013.6
20260510070555 58 54 0.0 0.0 0.00 0.00 0.00 27 1013.4
20260510070054 59 57 0.0 0.0 0.00 0.00 0.00 25 1013.4
20260510065557 59 57 0.0 0.0 0.00 0.00 0.00 25 1013.4
20260510065052 59 57 0.0 0.0 0.00 0.00 0.00 26 1013.3
20260510064551 60 57 0.0 0.0 0.00 0.00 0.00 25 1013.3
20260510064051 60 57 0.0 0.0 0.00 0.00 0.00 24 1013.2
20260510063553 60 57 0.0 0.0 0.00 0.00 0.00 24 1013.2
20260510063050 60 57 0.0 0.0 0.00 0.00 0.00 24 1013.1
20260510062550 60 57 0.0 0.0 0.00 0.00 0.00 25 1013.1
20260510062049 60 57 0.0 0.0 0.00 0.00 0.00 24 1013.1
20260510061552 60 57 0.0 0.0 0.00 0.00 0.00 25 1013.0
20260510061048 60 57 0.0 0.0 0.00 0.00 0.00 24 1012.9
20260510060548 60 57 0.0 0.0 0.00 0.00 0.00 25 1012.9
20260510060047 60 57 0.0 0.0 0.00 0.00 0.00 25 1012.8
20260510055545 60 57 0.0 0.0 0.00 0.00 0.00 25 1012.8
20260510055045 60 57 0.0 0.0 0.00 0.00 0.00 27 1012.8
20260510054646 60 57 0.0 0.0 0.00 0.00 0.00 26 1012.8
20260510054045 60 57 0.0 0.0 0.00 0.00 0.00 27 1012.8
20260510053544 60 57 0.0 0.0 0.00 0.00 0.00 27 1012.8
20260510053057 60 57 0.0 0.0 0.00 0.00 0.00 27 1012.7
20260510052545 59 57 0.0 0.0 0.00 0.00 0.00 29 1012.7
20260510052045 58 57 0.0 0.0 0.00 0.00 0.00 31 1012.6
20260510051548 59 57 0.0 0.0 0.00 0.00 0.00 29 1012.6
20260510051044 60 57 0.0 0.0 0.00 0.00 0.00 27 1012.5
20260510050544 60 57 0.0 0.0 0.00 0.00 0.00 28 1012.6
20260510050044 60 57 0.0 0.0 0.00 0.00 0.00 30 1012.5
20260510045544 60 57 0.0 0.0 0.00 0.00 0.00 30 1012.5
20260510045042 61 57 0.0 0.0 0.00 0.00 0.00 29 1012.4
20260510044542 61 57 0.0 0.0 0.00 0.00 0.00 27 1012.4
20260510044044 61 57 0.0 0.0 0.00 0.00 0.00 28 1012.4
20260510043542 61 57 0.0 0.0 0.00 0.00 0.00 26 1012.4
20260510043053 61 57 0.0 0.0 0.00 0.00 0.00 28 1012.2
20260510042542 60 57 0.0 0.0 0.00 0.00 0.00 28 1012.2
20260510042050 60 57 0.0 0.0 0.00 0.00 0.00 28 1012.2
20260510041541 60 57 0.0 0.0 0.00 0.00 0.00 27 1012.1
20260510041041 60 57 0.0 0.0 0.00 0.00 0.00 27 1012.1
20260510040541 60 57 0.0 0.0 0.00 0.00 0.00 27 1012.0
20260510040043 60 57 0.0 2.0 0.00 0.00 0.00 27 1011.9
20260510035540 61 57 0.0 4.0 0.00 0.00 0.00 26 1011.8
20260510035040 62 56 1.0 4.0 0.00 0.00 0.00 25 1011.8
20260510034542 62 188 0.0 0.0 0.00 0.00 0.00 24 1011.8
20260510034041 64 188 0.0 0.0 0.00 0.00 0.00 24 1011.7
20260510033540 64 188 0.0 0.0 0.00 0.00 0.00 22 1011.5
20260510033039 64 188 0.0 0.0 0.00 0.00 0.00 22 1011.4
20260510032539 64 188 0.0 2.0 0.00 0.00 0.00 23 1011.3
20260510032039 64 188 0.0 2.0 0.00 0.00 0.00 23 1011.3
20260510031546 64 200 0.0 2.0 0.00 0.00 0.00 23 1011.2
20260510031039 64 200 0.0 1.0 0.00 0.00 0.00 22 1011.1
20260510030542 64 202 0.0 2.0 0.00 0.00 0.00 23 1011.2
20260510030039 65 200 0.0 2.0 0.00 0.00 0.00 22 1010.8
20260510025538 65 201 1.0 2.0 0.00 0.00 0.00 22 1010.8
20260510025038 66 199 1.0 2.0 0.00 0.00 0.00 22 1010.7
20260510024540 66 219 1.0 2.0 0.00 0.00 0.00 21 1010.6
20260510024037 67 221 1.0 2.0 0.00 0.00 0.00 21 1010.6
20260510023537 68 250 1.0 2.0 0.00 0.00 0.00 20 1010.5
20260510023037 68 261 0.0 2.0 0.00 0.00 0.00 17 1010.6
20260510022537 68 271 0.0 1.0 0.00 0.00 0.00 17 1010.5
20260510022038 69 271 0.0 2.0 0.00 0.00 0.00 16 1010.4
20260510021544 69 271 1.0 3.0 0.00 0.00 0.00 16 1010.4
20260510021036 69 285 1.0 2.0 0.00 0.00 0.00 16 1010.4
20260510020535 69 288 0.0 2.0 0.00 0.00 0.00 16 1010.4
20260510020035 69 291 0.0 3.0 0.00 0.00 0.00 16 1010.5
20260510015534 70 291 2.0 3.0 0.00 0.00 0.00 15 1010.4
20260510015034 70 317 1.0 4.0 0.00 0.00 0.00 15 1010.4
20260510014535 71 323 1.0 4.0 0.00 0.00 0.00 14 1010.5
20260510014033 71 9 3.0 6.0 0.00 0.00 0.00 14 1010.5
20260510013532 71 351 2.0 8.0 0.00 0.00 0.00 15 1010.5
20260510013037 71 44 3.0 8.0 0.00 0.00 0.00 15 1010.5
20260510012532 71 67 1.0 4.0 0.00 0.00 0.00 15 1010.5
20260510012032 71 80 1.0 4.0 0.00 0.00 0.00 14 1010.6
20260510011541 71 94 1.0 7.0 0.00 0.00 0.00 15 1010.5
20260510011031 72 54 3.0 11.0 0.00 0.00 0.00 14 1010.5
20260510010530 72 46 3.0 11.0 0.00 0.00 0.00 14 1010.5
20260510010030 72 34 2.0 5.0 0.00 0.00 0.00 16 1010.5
20260510005529 72 49 1.0 6.0 0.00 0.00 0.00 14 1010.5
20260510005028 72 324 3.0 6.0 0.00 0.00 0.00 15 1010.4
20260510004532 72 61 2.0 6.0 0.00 0.00 0.00 15 1010.6
20260510004032 72 39 3.0 6.0 0.00 0.00 0.00 15 1010.4
20260510003529 72 88 0.0 6.0 0.00 0.00 0.00 14 1010.4
20260510003029 72 35 2.0 8.0 0.00 0.00 0.00 14 1010.6
20260510002531 72 23 3.0 8.0 0.00 0.00 0.00 15 1010.6
20260510002028 72 310 3.0 11.0 0.00 0.00 0.00 16 1010.7
20260510001528 73 323 7.0 11.0 0.00 0.00 0.00 15 1010.6
20260510001028 72 244 3.0 9.0 0.00 0.00 0.00 19 1010.7
20260510000628 72 302 4.0 8.0 0.00 0.00 0.00 17 1010.8
20260510000037 73 26 3.0 9.0 0.00 0.00 0.00 14 1010.8
20260509235527 73 5 5.0 10.0 0.00 0.00 0.00 14 1010.8
20260509235027 73 11 5.0 12.0 0.00 0.00 0.00 16 1010.8
20260509234526 73 28 5.0 10.0 0.00 0.00 0.00 15 1010.8
20260509234030 73 336 4.0 11.0 0.00 0.00 0.00 16 1010.8
20260509233526 73 326 5.0 11.0 0.00 0.00 0.00 15 1010.8
20260509233025 74 290 7.0 10.0 0.00 0.00 0.00 16 1010.9
20260509232525 74 308 3.0 12.0 0.00 0.00 0.00 17 1010.9
20260509232025 73 254 3.0 12.0 0.00 0.00 0.00 16 1010.9
20260509231525 73 300 7.0 12.0 0.00 0.00 0.00 17 1011.0
20260509231024 73 287 4.0 10.0 0.00 0.00 0.00 15 1011.1
20260509230524 73 315 2.0 12.0 0.00 0.00 0.00 15 1011.1
20260509230024 74 332 5.0 12.0 0.00 0.00 0.00 16 1011.3
20260509225524 73 308 4.0 10.0 0.00 0.00 0.00 15 1011.2
20260509225023 73 259 3.0 13.0 0.00 0.00 0.00 15 1011.2
20260509224523 73 322 8.0 13.0 0.00 0.00 0.00 15 1011.2
20260509224023 73 274 6.0 13.0 0.00 0.00 0.00 14 1011.2
20260509223524 73 322 8.0 14.0 0.00 0.00 0.00 15 1011.2
20260509223023 73 301 4.0 14.0 0.00 0.00 0.00 15 1011.2
20260509222522 73 338 3.0 12.0 0.00 0.00 0.00 14 1011.2
20260509222022 73 318 6.0 14.0 0.00 0.00 0.00 14 1011.4
20260509221522 73 327 7.0 14.0 0.00 0.00 0.00 13 1011.4
20260509221021 73 308 9.0 15.0 0.00 0.00 0.00 14 1011.4
20260509220520 73 329 9.0 15.0 0.00 0.00 0.00 18 1011.4
20260509220022 72 350 8.0 15.0 0.00 0.00 0.00 18 1011.3
20260509215519 73 323 8.0 15.0 0.00 0.00 0.00 18 1011.5
20260509215019 72 294 5.0 14.0 0.00 0.00 0.00 19 1011.7
20260509214518 72 305 7.0 16.0 0.00 0.00 0.00 16 1011.7
20260509214018 73 343 5.0 16.0 0.00 0.00 0.00 17 1011.7
20260509213518 72 309 6.0 16.0 0.00 0.00 0.00 17 1011.7
20260509213026 72 302 8.0 17.0 0.00 0.00 0.00 17 1011.7
20260509212519 72 337 11.0 17.0 0.00 0.00 0.00 18 1011.6
20260509212018 72 342 5.0 16.0 0.00 0.00 0.00 18 1011.5
20260509211516 72 308 8.0 16.0 0.00 0.00 0.00 17 1011.5
20260509211016 72 9 6.0 16.0 0.00 0.00 0.00 18 1011.5
20260509210516 72 314 9.0 16.0 0.00 0.00 0.00 17 1011.5
20260509210016 72 316 7.0 18.0 0.00 0.00 0.00 20 1011.5
20260509205514 72 319 11.0 18.0 0.00 0.00 0.00 19 1011.6
20260509205014 72 341 7.0 13.0 0.00 0.00 0.00 22 1011.5
20260509204514 72 307 8.0 13.0 0.00 0.00 0.00 21 1011.7
20260509204013 72 329 7.0 16.0 0.00 0.00 0.00 24 1011.6
20260509203514 72 346 7.0 16.0 0.00 0.00 0.00 22 1011.6
20260509203016 72 313 8.0 15.0 0.00 0.00 0.00 21 1011.7
20260509202513 71 304 10.0 15.0 0.00 0.00 0.00 24 1011.8
20260509202013 71 311 9.0 16.0 0.00 0.00 0.00 22 1011.6
20260509201513 72 330 10.0 16.0 0.00 0.00 0.00 21 1011.8
20260509201014 71 305 10.0 14.0 0.00 0.00 0.00 19 1011.8
20260509200513 71 319 7.0 13.0 0.00 0.00 0.00 20 1011.8
20260509200012 72 297 6.0 16.0 0.00 0.00 0.00 20 1011.8
20260509195512 72 333 9.0 16.0 0.00 0.00 0.00 24 1011.8
20260509195009 71 300 9.0 14.0 0.00 0.00 0.00 22 1011.9
20260509194509 71 317 8.0 14.0 0.00 0.00 0.00 23 1012.0
20260509194011 70 270 6.0 14.0 0.00 0.00 0.00 26 1011.9
20260509193509 70 260 6.0 16.0 0.00 0.00 0.00 25 1011.9
20260509193016 71 302 6.0 16.0 0.00 0.00 0.00 27 1011.9
20260509192507 71 298 9.0 17.0 0.00 0.00 0.00 26 1012.0